Regional Weather Roundup
Issued by NWS Portland, ME

Current Version | Previous Version | Text Only | Print | Product List | Glossary On
Versions: 1 2 3 4 5 6 7 8 9 10 11 12 13 14 15 16 17 18 19 20 21 22 23 24 25 26 27 28 29 30 31 32 33 34 35 36 37 38 39 40 41 42 43 44 45 46 47 48 49 50
000
ASUS41 KGYX 281310
RWRGYX
WEATHER ROUNDUP FOR MAINE AND NEW HAMPSHIRE
NATIONAL WEATHER SERVICE GRAY ME
900 AM EDT FRI APR 28 2017

MEZ002-005-006-010-012-015-018-020-021-024-026-027-029-281400-
MAINE

CITY           SKY/WX    TMP DP  RH WIND       PRES   REMARKS
PORTLAND       CLOUDY    53  52  96 VRB6      29.96S FOG
SANFORD        CLOUDY    55  54  96 S5        29.96S
BAR HARBOR     FOG       48  48 100 CALM      30.00R VSB 3/4
WISCASSET      FOG       52  51  97 CALM      29.98S VSB 1/4
ROCKLAND       FOG       48  48 100 CALM      29.99R VSB 3/4
FRYEBURG       CLOUDY    60  57  89 CALM      29.94R
LEWISTONAUBURN CLOUDY    52  51  97 S6        29.97R FOG
AUGUSTA        FOG       50  49  96 S5        29.97S VSB<1/4
WATERVILLE     CLOUDY    51  51 100 SW3       29.94S FOG
BANGOR         FOG       50  49  96 S6        29.98R VSB 1
GREENVILLE       N/A     51  51 100 VRB3      29.91S
MILLINOCKET    CLOUDY    51  51 100 VRB3      29.96R FOG
HOULTON        CLOUDY    48  48 100 CALM      29.94S FOG
PRESQUE ISLE   CLOUDY    47  46  97 SE10      29.94F
FRENCHVILLE    FOG       44  42  93 E8        29.90F VSB 1/4
CARIBOU        CLOUDY    48  47  96 S6        29.93S
$$

NHZ002-005-008-009-011-012-014-281400-
NEW HAMPSHIRE

CITY           SKY/WX    TMP DP  RH WIND       PRES   REMARKS
PORTSMOUTH     LGT RAIN  54  52  94 CALM      29.95S FOG
ROCHESTER      CLOUDY    56  53  90 CALM      29.95R
NASHUA         CLOUDY    60  58  92 CALM      29.95S
MANCHESTER     CLOUDY    61  56  83 S5        29.93S
CONCORD        CLOUDY    58  57  97 CALM      29.96R
LACONIA        CLOUDY    57  55  93 CALM      29.96R
PLYMOUTH       CLOUDY    57  56  95 CALM      29.96R FOG
BERLIN         CLOUDY    63  54  72 SW3       29.93R
WHITEFIELD     CLOUDY    64  56  75 W6        29.94R
JAFFREY        CLOUDY    60  59  96 W6        29.97R
KEENE          CLOUDY    60  58  92 W3        29.96R
LEBANON        CLOUDY    64  58  80 VRB5      29.94R
MT WASHINGTON  FOG       48  48 100 W20         N/A  VSB 0
$$

VTZ005-007-008-281400-
VERMONT

CITY           SKY/WX    TMP DP  RH WIND       PRES   REMARKS
ST JOHNSBURY     N/A     62  57  83 MISG      29.92R
MONTPELIER     PTSUNNY   64  59  83 S9        29.96S
BURLINGTON     CLOUDY    67  60  78 S9        29.91R
$$

MAZ007-012-024-CTZ003-RIZ002-NYZ038-NYZ072-281400-
SOUTHERN NEW ENGLAND AND NY

CITY           SKY/WX    TMP DP  RH WIND       PRES   REMARKS
BOSTON         CLOUDY    60  59  96 S7        29.95F
WORCESTER      FOG       58  56  93 SW6       29.95F VSB 1
NANTUCKET      CLOUDY    55  54  96 SW9       30.01R
PROVIDENCE     LGT RAIN  54  54 100 SE7       29.96F VSB 1/2
HARTFORD       FOG       59  59 100 CALM      29.95S VSB 1/4
ALBANY         PTSUNNY   64  58  80 W3        29.97S
NEW YORK CITY  PTSUNNY   62  58  86 NE5       29.97R FOG
$$

ANZ081-ANZ082-ANZ150-NHZ014-MEZ023>029-281400-
COASTAL MARINE OBSERVATIONS

STATION/POSITION TIME  TEMP    WIND        PRES    WAVE
                       AIR SEA DIR/SP/G            HT/PER
                 (UTC) (F)     (DEG/KT/KT) (MB)    (FT/S)
MOUNT DESERT ROC 1200   44                 1015.9R
MATINICUS ROCK   1200   45     160/ 14/ 14 1014.6R
ISLE OF SHOALS   1200   49     140/  9/  9 1014.0R
JEFFREYS LEDGE   1206      45                N/A     6/10
CASHES LEDGE BUO 1150   47 44              1015.4    6/10
GEORGES BANK BUO 1150   49 41              1018.4    8/ 8
$$

.............KEY..............
   WCI - WIND CHILL
   TC  - TEMPERATURE IN CELSIUS
   VSB - VISIBILITY IN MILES
   HX  - HEAT INDEX
   FAIR- INDICATES FEW OR NO CLOUDS BELOW 12,000 FT, WITH NO
         SIGNIFICANT WEATHER AND/OR OBSTRUCTIONS TO VISIBILITY.





USA.gov is the U.S. government's official web portal to all federal, state and local government web resources and services.